カタログに戻る

COSMOS 1959

運用中ナビゲーションPO
NORAD 19324·PAYLOAD·🇷🇺 Russia

打ち上げ Jul 18, 1988 から Plesetsk Cosmodrome

Loading…

次のパス (今後24時間)

TLE

最新Source: Space-Track

元期: Sep 14, 2026, 21:48 UTC

1 19324U 88062A   26257.90864380  .00000041  00000-0  26378-4 0  9998
2 19324  82.9482  56.4013 0033021 227.6407 296.4295 13.76360560916044

AllMySatでCOSMOS 1959をリアルタイム追跡

Download on the App Store